KC8YVF-1 Weather Reports


Display with metric or nautical units.
time (UTC)temp
F
wind
direction
speed
MPH
gust
MPH
rain 1hr
in
rain 24hr
in
rain mn
in
humidity
%
barometer
mb
20260903083856 71 23 0.0 0.0 0.00 0.08 0.00 92 1000.2
20260903082357 72 23 0.0 0.0 0.00 0.08 0.00 92 1000.1
20260903080857 72 23 0.0 0.0 0.00 0.08 0.00 92 1000.0
20260903075357 72 23 0.0 0.0 0.00 0.08 0.00 92 1000.0
20260903073902 72 23 0.0 0.0 0.00 0.08 0.00 92 1000.0
20260903072356 72 23 0.0 0.0 0.00 0.10 0.00 92 1000.0
20260903070856 72 23 0.0 0.0 0.00 0.10 0.00 92 1000.0
20260903065358 72 23 0.0 0.0 0.00 0.10 0.00 91 1000.0
20260903063857 72 23 0.0 0.0 0.00 0.10 0.00 91 1000.0
20260903062358 73 23 0.0 0.0 0.00 0.10 0.00 91 1000.0
20260903060856 73 23 0.0 0.0 0.00 0.10 0.00 91 1000.0
20260903055356 73 23 0.0 0.0 0.00 0.10 0.00 91 1000.0
20260903053857 73 23 0.0 0.0 0.00 0.10 0.00 91 1000.0
20260903052357 74 23 0.0 0.0 0.00 0.10 0.00 91 1000.0
20260903050856 74 23 0.0 0.0 0.00 0.10 0.00 96 1000.0
20260903045356 74 23 0.0 0.0 0.00 0.10 0.00 96 1000.0
20260903043857 74 68 0.0 0.0 0.00 0.10 0.00 96 999.6
20260903042358 74 68 0.0 0.0 0.00 0.10 0.00 96 999.6
20260903040857 74 68 0.0 0.0 0.00 0.10 0.00 96 999.3
20260903035358 74 68 0.0 0.0 0.00 0.10 0.10 89 999.3
20260903033858 74 68 0.0 0.0 0.00 0.10 0.10 89 999.0
20260903032357 75 68 0.0 0.0 0.00 0.10 0.10 89 999.2
20260903030857 75 68 0.0 0.0 0.00 0.10 0.10 88 998.9
20260903025357 75 68 0.0 0.0 0.00 0.10 0.10 89 998.9
20260903023858 76 68 0.0 0.0 0.00 0.10 0.10 88 999.3
20260903022358 76 68 0.0 0.0 0.00 0.10 0.10 88 999.3
20260903020857 76 68 0.0 0.0 0.00 0.10 0.10 88 999.6
20260903015356 76 68 0.0 0.0 0.00 0.10 0.10 88 999.3
20260903013857 77 68 0.0 0.0 0.00 0.10 0.10 88 999.3
20260903012356 77 68 0.0 0.0 0.00 0.10 0.10 87 999.3
20260903010857 77 68 0.0 0.0 0.00 0.10 0.10 87 999.3
20260903005357 78 68 0.0 0.0 0.00 0.10 0.10 86 998.9
20260903003857 78 68 0.0 0.0 0.00 0.10 0.10 86 998.9
20260903002356 79 68 0.0 0.0 0.00 0.10 0.10 84 998.9
20260903000857 79 68 0.0 0.0 0.00 0.10 0.10 84 998.9
20260902235357 80 68 0.0 0.0 0.00 0.10 0.10 82 998.9
20260902233856 80 68 0.0 0.0 0.00 0.10 0.10 82 998.9
20260902232356 81 68 0.0 0.0 0.00 0.10 0.10 81 998.9
20260902230857 81 68 0.0 0.0 0.00 0.10 0.10 82 999.1
20260902225358 81 68 0.0 0.0 0.00 0.10 0.10 81 998.7
20260902223857 82 68 0.0 0.0 0.00 0.10 0.10 81 998.6
20260902222357 82 68 0.0 0.0 0.00 0.10 0.10 81 998.6
20260902220857 83 45 0.0 0.0 0.02 0.10 0.10 82 998.3
20260902215358 83 23 0.0 0.0 0.08 0.10 0.10 81 998.0
20260902213857 84 0 0.0 0.0 0.08 0.10 0.10 81 997.9
20260902212358 84 338 0.0 0.0 0.08 0.10 0.10 80 997.9
20260902210857 86 315 0.0 0.0 0.06 0.08 0.08 73 998.0
20260902205356 89 0 1.0 2.0 0.00 0.02 0.02 69 998.9
20260902203858 92 338 0.0 1.0 0.00 0.02 0.02 67 998.9
20260902202356 92 338 1.0 2.0 0.00 0.02 0.02 67 998.6
20260902200857 92 0 0.0 0.0 0.00 0.02 0.02 67 998.3
20260902195357 91 293 0.0 0.0 0.00 0.02 0.02 67 998.6
20260902193857 91 270 0.0 2.0 0.00 0.02 0.02 68 998.9
20260902192357 90 270 0.0 0.0 0.00 0.02 0.02 68 999.3
20260902190856 91 270 0.0 6.0 0.00 0.02 0.02 68 999.6
20260902185358 91 225 0.0 0.0 0.00 0.02 0.02 70 999.3
20260902183856 90 180 0.0 0.0 0.00 0.02 0.02 69 999.3
20260902182357 89 248 0.0 0.0 0.00 0.02 0.02 69 999.6
20260902180858 89 180 2.0 2.0 0.00 0.02 0.02 69 999.6
20260902175357 90 158 3.0 3.0 0.00 0.02 0.02 67 999.6
20260902173857 90 158 0.0 0.0 0.00 0.02 0.02 68 999.7
20260902172358 90 225 0.0 0.0 0.00 0.02 0.02 68 1000.0
20260902170857 90 158 0.0 0.0 0.00 0.02 0.02 67 1000.0
20260902165358 89 180 3.0 3.0 0.00 0.02 0.02 68 1000.0
20260902163857 88 293 0.0 0.0 0.00 0.02 0.02 71 1000.0
20260902162356 86 158 0.0 0.0 0.00 0.02 0.02 73 1000.2
20260902160857 84 270 0.0 0.0 0.00 0.02 0.02 76 1000.3
20260902155357 83 338 0.0 0.0 0.00 0.02 0.02 78 1000.6
20260902153856 82 293 0.0 0.0 0.00 0.02 0.02 79 1000.6
20260902152357 82 293 0.0 0.0 0.00 0.02 0.02 80 1000.8
20260902150858 81 338 0.0 0.0 0.00 0.02 0.02 82 1000.6
20260902145356 81 293 0.0 0.0 0.00 0.02 0.02 83 1001.0
20260902143857 81 293 6.0 6.0 0.00 0.02 0.02 83 1001.1
20260902142356 81 315 0.0 0.0 0.00 0.02 0.02 83 1001.0
20260902140858 81 0 6.0 6.0 0.00 0.02 0.02 85 1000.6
20260902135357 80 270 0.0 0.0 0.00 0.02 0.02 85 1000.3
20260902133857 79 270 0.0 0.0 0.00 0.02 0.02 86 1000.0
20260902132357 78 180 0.0 0.0 0.00 0.02 0.02 86 1000.0
20260902130858 78 180 0.0 0.0 0.00 0.02 0.02 86 1000.5
20260902125357 78 270 0.0 0.0 0.00 0.02 0.02 87 1000.6
20260902123856 77 248 0.0 0.0 0.00 0.02 0.02 88 1000.4
20260902122357 76 270 0.0 0.0 0.00 0.02 0.02 89 1000.5
20260902120857 75 248 0.0 0.0 0.00 0.02 0.02 89 1000.3
20260902115358 74 225 0.0 0.0 0.00 0.02 0.02 89 1000.3
20260902113857 74 225 0.0 0.0 0.00 0.02 0.02 89 1000.1
20260902112358 74 225 0.0 0.0 0.00 0.02 0.02 89 1000.0
20260902110857 74 203 0.0 0.0 0.00 0.02 0.02 89 1000.0
20260902105357 75 203 0.0 0.0 0.00 0.02 0.02 89 1000.3
20260902103857 75 203 0.0 0.0 0.00 0.02 0.02 89 1000.3
20260902102356 75 203 0.0 0.0 0.00 0.02 0.02 89 1000.5
20260902100857 75 248 0.0 0.0 0.00 0.02 0.02 89 1000.6
20260902095358 75 248 0.0 0.0 0.00 0.02 0.02 89 1000.3
20260902093857 75 225 0.0 0.0 0.00 0.02 0.02 89 1000.4
20260902092357 75 225 0.0 0.0 0.00 0.02 0.02 89 1000.3
20260902090858 75 225 0.0 0.0 0.00 0.02 0.02 89 1000.3
20260902085357 75 225 0.0 0.0 0.00 0.02 0.02 89 1000.3